SCP
0 0 0 0 0 0 0 0 0 0 0 0 0 0 0 0 0 0 0 0 0 0 0 0 0 0 0 0 0 0 0 0 0 0 0 0 0 0 0 0 0 0 0 0
0 0 0 0 0 0 0 0 0 0 0 0 0 0 0 0 0 0 0 0 0 0 0 0 0 0 0 0 0 0 0 0 0 0 0 0 0 0 0 0 0 0 0 0
0 0 0 0 0 0 0 0 0 0 0 0 0 0 0 0 0 0 0 0 0 0 0 0 0 0 0 0 0 0 0 0 0 0 0 0 0 0 0 0 0 0 0 0
0 0 0 0 0 0 0 0 0 0 0 0 0 0 0 0 0 0 0 0 0 0 0 0 0 0 0 0 0 0 0 0 0 0 0 0 0 0 0 0 0 0 0 0
0 0 0 0 0 0 0 0 0 0 0 0 0 0 0 0 0 0 0 0 0 0 0 0 0 0 0 0 0 0 0 0 0 0 0 0 0 0 0 0 0 0 0 0
0 0 0 0 0 0 0 0 0 0 0 0 0 0 0 0 0 0 0 0 0 0 0 0 0 0 0 0 0 0 0 0 0 0 0 0 0 0 0 0 0 0 0 0
0 0 0 0 0 0 0 0 0 0 0 0 0 0 0 0 0 0 0 0 0 0 0 0 0 0 0 0 0 0 0 0 0 0 0 0 0 0 0 0 0 0 0 0
0 0 0 0 0 0 0 0 0 0 0 0 0 0 0 0 0 0 0 0 0 0 0 0 0 0 0 0 0 0 0 0 0 0 0 0 0 0 0 0 0 0 0 0
0 0 0 0 0 0 0 0 0 0 0 0 0 0 0 0 0 0 0 0 0 0 0 0 0 0 0 0 0 0 0 0 0 0 0 0 0 0 0 0 0 0 0 0
0 0 0 0 0 0 0 0 0 0 0 0 0 0 0 0 0 0 0 0 0 0 0 0 0 0 0 0 0 0 0 0 0 0 0 0 0 0 0 0 0 0 0 0
0 0 0 0 0 0 0 0 0 0 0 0 0 0 0 0 0 0 0 0 0 0 0 0 0 0 0 0 0 0 0 0 0 0 0 0 0 0 0 0 0 0 0 0
0 0 0 0 0 0 0 0 0 0 0 0 0 0 0 0 0 0 0 0 0 0 0 0 0 0 0 0 0 0 0 0 0 0 0 0 0 0 0 0 0 0 0 0
0 0 0 0 0 0 0 0 0 0 0 0 0 0 0 0 0 0 0 0 0 0 0 0 0 0 0 0 0 0 0 0 0 0 0 0 0 0 0 0 0 0 0 0
0 0 0 0 0 0 0 0 0 0 0 0 0 0 0 0 0 0 0 0 0 0 0 0 0 0 0 0 0 0 0 0 0 0 0 0 0 0 0 0 0 0 0 0
0 0 0 0 0 0 0 0 0 0 0 0 0 0 0 0 0 0 0 0 0 0 0 0 0 0 0 0 0 0 0 0 0 0 0 0 0 0 0 0 0 0 0 0
0 0 0 0 0 0 0 0 0 0 0 0 0 0 0 0 0 0 0 0 0 0 0 0 0 0 0 0 0 0 0 0 0 0 0 0 0 0 0 0 0 0 0 0
0 0 0 0 0 0 0 0 0 0 0 0 0 0 0 0 0 0 0 0 0 0 0 0 0 0 0 0 0 0 0 0 0 0 0 0 0 0 0 0 0 0 0 0
0 0 0 0 0 0 0 0 0 0 0 0 0 0 0 0 0 0 0 0 0 0 0 0 0 0 0 0 0 0 0 0 0 0 0 0 0 0 0 0 0 0 0 0
0 0 0 0 0 0 0 0 0 0 0 0 0 0 0 0 0 0 0 0 0 0 0 0 0 0 0 0 0 0 0 0 0 0 0 0 0 0 0 0 0 0 0 0
0 0 0 0 0 0 0 0 0 0 0 0 0 0 0 0 0 0 0 0 0 0 0 0 0 0 0 0 0 0 0 0 0 0 0 0 0 0 0 0 0 0 0 0
0 0 0 0 0 0 0 0 0 0 0 0 0 0 0 0 0 0 0 0 0 0 0 0 0 0 0 0 0 0 0 0 0 0 0 0 0 0 0 0 0 0 0 0
0 0 0 0 0 0 0 0 0 0 0 0 0 0 0 0 0 0 0 0 0 0 0 0 0 0 0 0 0 0 0 0 0 0 0 0 0 0 0 0 0 0 0 0
0 0 0 0 0 0 0 0 0 0 0 0 0 0 0 0 0 0 0 0 0 0 0 0 0 0 0 0 0 0 0 0 0 0 0 0 0 0 0 0 0 0 0 0
0 0 0 0 0 0 0 0 0 0 0 0 0 0 0 0 0 0 0 0 0 0 0 0 0 0 0 0 0 0 0 0 0 0 0 0 0 0 0 0 0 0 0 0
0 0 0 0 0 0 0 0 0 0 0 0 0 0 0 0 0 0 0 0 0 0 0 0 0 0 0 0 0 0 0 0 0 0 0 0 0 0 0 0 0 0 0 0
0 0 0 0 0 0 0 0 0 0 0 0 0 0 0 0 0 0 0 0 0 0 0 0 0 0 0 0 0 0 0 0 0 0 0 0 0 0 0 0 0 0 0 0
0 0 0 0 0 0 0 0 0 0 0 0 0 0 0 0 0 0 0 0 0 0 0 0 0 0 0 0 0 0 0 0 0 0 0 0 0 0 0 0 0 0 0 0
Wind_Speed
10 9 5 8 11 10 14 14 15 18 20 28 23 13 8 9 9 10 10 10 10 12 11 11 12 13 14 15 14 14 14 14 14 11 9 8 8 8 7 7 7 6 7 8
7 8 8 10 17 19 17 15 18 22 25 26 19 9 9 10 10 11 11 11 11 11 11 12 15 15 15 16 15 14 15 14 12 10 10 9 9 8 7 7 6 6 7 8
7 5 5 10 16 17 10 10 11 17 20 15 12 11 10 9 9 10 12 11 11 11 13 14 15 16 17 16 14 15 15 13 12 11 11 11 10 9 8 7 6 7 7 8
4 1 11 13 5 7 10 13 14 15 17 13 11 9 9 10 11 13 12 11 10 9 10 11 11 12 12 12 14 15 14 13 13 12 12 10 10 10 9 6 6 6 7 8
3 5 12 11 10 6 7 11 11 16 18 14 6 6 9 8 6 10 10 10 9 8 8 7 9 11 11 13 14 15 16 15 15 14 13 12 12 11 9 7 7 7 7 8
4 5 11 10 5 1 1 10 7 5 8 6 2 4 8 7 5 7 8 8 8 7 6 7 7 10 13 15 16 18 18 16 15 14 14 14 13 11 8 7 7 7 7 6
8 9 14 11 3 3 5 10 4 1 3 3 5 9 9 9 9 9 10 11 9 7 7 8 7 11 14 16 19 17 13 13 14 14 14 13 11 9 8 7 6 6 6 6
7 7 15 7 6 9 10 5 5 6 6 6 9 11 11 11 12 12 12 12 10 8 10 8 9 13 15 18 15 11 13 14 14 14 12 11 11 10 8 8 6 6 5 6
13 14 7 5 10 8 4 7 9 8 10 9 11 12 13 12 11 11 11 11 9 9 11 8 10 14 18 16 12 13 15 15 14 14 13 11 12 11 8 7 6 5 5 5
9 12 12 10 9 10 11 12 12 11 12 11 13 15 14 13 11 10 10 11 9 8 10 12 11 15 17 10 12 14 16 15 14 14 13 12 10 9 8 8 7 6 6 5
13 10 9 10 10 10 10 10 11 13 12 12 13 13 12 11 10 10 10 9 8 8 12 14 10 13 13 10 14 15 15 14 13 13 12 11 11 9 10 8 8 7 6 5
21 14 13 13 11 12 14 13 13 12 11 10 8 9 9 9 9 9 10 9 9 10 12 13 9 11 11 12 15 15 13 13 11 10 10 10 9 8 14 12 15 16 13 10
23 19 17 16 12 10 10 11 9 8 7 7 7 7 7 8 8 9 10 11 11 12 12 12 10 10 10 13 14 16 14 13 11 11 11 11 10 10 8 10 14 15 15 14
14 13 14 13 12 9 6 5 4 4 5 6 6 7 8 8 10 12 12 12 12 13 13 11 10 10 9 12 14 15 13 16 14 11 11 11 11 10 9 9 8 6 8 12
12 11 11 8 4 4 3 4 5 6 8 8 7 8 9 11 12 14 14 12 11 12 12 10 11 10 7 11 14 14 13 10 11 10 10 10 10 9 8 9 8 5 4 5
5 3 2 1 2 3 4 4 5 7 8 9 10 11 12 12 13 14 14 11 11 14 14 11 12 10 7 11 13 12 11 18 15 10 10 10 10 10 9 9 8 7 7 6
3 1 1 2 2 3 4 5 6 8 9 10 12 12 13 13 14 14 14 12 11 13 12 11 13 9 7 11 12 10 9 13 22 13 10 11 11 11 10 9 9 8 7 8
5 4 2 1 2 5 7 8 8 10 11 11 12 11 12 13 14 15 15 14 14 15 13 10 10 8 7 9 10 9 9 9 10 10 10 10 10 10 10 10 10 9 6 8
3 2 2 3 5 6 7 9 10 10 11 11 11 13 13 13 13 14 13 13 14 15 13 9 13 9 6 11 12 8 10 10 10 10 9 14 13 9 10 10 9 9 8 7
2 3 5 6 6 7 8 10 11 11 11 10 12 13 14 14 13 13 12 12 11 10 10 12 10 7 6 9 14 8 10 12 12 11 11 10 10 10 10 10 9 9 8 8
5 6 7 7 9 9 9 10 11 12 12 11 12 13 14 15 13 12 11 12 12 10 9 13 8 6 5 8 14 8 10 11 11 11 11 11 11 11 10 10 10 10 9 8
6 7 8 9 11 12 11 10 11 12 13 12 12 13 13 14 13 11 11 10 11 15 10 7 6 9 9 11 8 9 11 12 11 10 11 11 11 11 11 11 10 10 9 8
8 8 9 11 12 14 14 12 11 11 12 13 14 14 14 13 10 11 12 9 8 14 11 7 11 16 15 9 7 9 11 12 12 11 11 11 10 10 10 11 10 9 9 8
9 10 10 11 11 12 14 14 11 10 12 13 12 13 12 11 10 9 9 15 19 19 11 12 18 18 15 6 8 9 11 11 11 10 10 10 9 9 9 10 9 9 9 10
10 11 10 11 11 11 12 12 12 12 11 10 11 12 10 9 10 11 10 11 17 18 11 13 18 17 10 6 9 10 11 11 11 10 10 10 10 10 9 9 9 9 9 9
11 10 10 10 10 10 9 9 9 10 10 11 10 9 9 8 10 10 10 11 14 17 12 9 8 10 7 6 8 10 11 12 14 12 11 10 10 10 9 9 11 9 9 9
10 9 8 9 8 8 8 8 9 10 10 11 13 11 11 10 10 10 11 10 10 10 9 8 7 6 6 6 7 9 10 10 10 10 10 10 9 9 9 10 9 9 8 9
Wind_Direction
255 263 242 240 249 229 217 223 238 255 258 269 275 282 272 266 272 274 265 250 234 230 224 213 207 205 203 200 194 190 190 195 200 196 192 193 199 207 214 222 237 245 256 264
272 263 247 251 256 250 240 235 242 260 268 267 278 288 278 274 272 271 266 255 245 237 227 218 212 209 204 201 195 189 193 198 194 185 188 195 202 207 215 226 238 248 256 264
266 288 328 265 242 238 226 217 214 243 256 273 283 278 268 267 265 260 263 263 254 242 231 225 217 208 206 201 190 191 196 194 188 186 192 198 204 209 218 226 236 249 257 263
261 315 240 243 244 225 233 246 228 245 261 269 266 279 271 259 259 268 268 267 263 253 241 231 217 207 201 190 190 194 195 192 188 187 193 195 202 214 220 221 232 246 257 263
201 247 270 287 275 220 219 272 241 242 262 276 304 314 296 273 241 247 260 266 266 260 247 233 213 196 186 191 193 197 198 195 191 188 189 194 206 215 216 217 231 242 252 259
191 224 252 252 263 170 123 286 282 237 263 294 42 325 284 296 309 288 284 279 277 275 254 234 209 180 187 196 199 205 201 196 189 187 190 198 207 212 210 213 228 242 253 254
215 235 260 258 253 146 216 251 302 330 272 257 221 237 262 293 297 288 287 284 280 270 253 238 197 182 198 203 210 208 194 187 186 189 193 197 202 206 206 213 225 236 252 259
191 215 255 236 160 199 230 294 312 308 298 289 274 274 280 284 284 286 287 286 279 265 257 238 194 192 207 215 211 188 182 185 187 188 190 192 195 201 204 208 220 236 249 260
201 220 247 193 211 244 287 288 287 290 295 297 288 285 287 285 283 284 281 280 274 258 261 245 206 202 217 219 190 179 184 189 187 187 190 189 191 196 199 203 213 229 237 253
245 253 259 262 254 260 260 263 274 282 287 289 285 286 289 289 288 286 283 279 276 265 259 255 224 215 223 206 180 182 188 190 187 186 189 191 191 194 196 199 206 217 228 241
258 264 276 261 257 265 276 283 286 287 287 285 284 287 287 291 290 287 285 283 278 263 260 260 241 224 218 194 182 188 191 190 188 189 187 190 195 198 199 201 197 202 214 221
265 269 270 279 278 284 286 288 291 296 299 297 292 292 299 298 293 294 294 293 291 281 272 270 254 233 211 194 189 189 192 191 188 186 185 187 189 199 218 212 221 226 222 215
260 268 271 280 283 285 288 293 298 304 309 316 317 314 313 303 300 302 300 299 294 289 283 278 263 241 210 194 192 195 194 188 186 185 185 186 185 186 194 214 223 227 230 233
257 269 275 279 286 298 304 313 331 342 335 326 315 314 313 304 303 305 301 297 296 295 293 286 271 251 212 194 195 198 195 192 187 186 186 185 185 185 185 185 194 214 227 230
259 259 266 280 305 339 355 2 1 344 332 325 316 311 308 305 302 300 299 297 297 296 294 289 278 263 211 194 197 198 194 192 187 182 183 184 181 178 181 184 188 186 180 216
270 291 306 1 23 13 8 2 341 320 311 303 302 300 298 294 293 294 295 294 295 297 298 293 281 267 216 196 196 196 196 198 188 182 181 180 179 178 180 183 186 188 193 192
244 268 39 36 4 338 319 303 292 290 291 292 292 293 296 297 298 299 300 299 292 288 287 283 281 272 221 199 195 195 190 198 195 188 186 185 182 181 180 180 186 191 194 191
113 123 125 152 288 295 296 292 287 287 286 285 289 293 295 297 298 299 300 302 303 301 294 279 274 271 228 201 194 190 186 190 189 183 186 188 186 182 179 181 185 186 182 195
119 149 240 268 272 273 277 284 288 289 290 292 294 295 293 291 290 292 295 298 299 299 299 296 299 285 233 209 196 188 185 187 188 184 185 193 190 181 179 181 182 183 180 183
264 269 273 275 276 274 281 286 290 293 294 294 294 295 295 293 292 294 294 290 283 277 281 291 297 279 241 215 203 189 187 188 189 186 187 191 187 183 181 181 180 179 181 183
283 285 290 294 296 294 291 293 299 300 300 297 292 291 291 292 291 291 292 293 290 286 285 293 290 271 238 220 208 192 190 190 191 189 189 191 189 184 182 180 180 181 182 182
288 292 299 305 307 306 305 301 298 297 297 295 291 288 290 293 293 289 277 274 282 291 295 284 277 270 255 229 206 193 194 193 192 189 189 191 189 185 182 181 180 181 180 176
285 289 296 299 300 300 302 298 293 290 290 291 292 292 290 288 290 291 293 287 284 292 293 278 281 282 271 234 204 196 195 194 193 192 190 191 190 186 182 180 180 178 174 172
284 286 286 288 292 294 295 294 290 287 284 284 282 279 280 287 287 274 271 286 293 295 290 284 289 286 273 224 200 197 195 195 193 191 189 189 188 183 180 178 177 175 172 169
272 276 279 283 286 285 285 288 292 290 287 285 282 279 274 270 276 285 285 283 287 294 290 287 289 287 269 222 200 196 192 192 191 189 189 186 184 182 179 177 176 173 171 171
267 270 271 269 271 277 280 282 285 289 293 294 293 288 284 281 277 279 282 281 280 286 286 280 277 274 258 229 202 192 188 190 195 193 187 183 181 179 177 176 173 173 170 167
270 271 273 275 272 267 267 271 278 284 287 290 294 294 291 290 287 284 283 283 283 281 278 274 267 258 252 231 202 188 183 183 185 183 179 178 177 177 176 172 173 169 165 164